DW7525 Weather Reports


time (UTC)temp
C
wind
direction
speed
KPH
gust
KPH
rain 1hr
cm
rain 24hr
cm
rain mn
cm
humidity
%
barometer
mb
20260505194823 3 360 1.6 9.7 0.00 0.48 0.46 94 1011.7
20260505194339 2 360 4.8 9.7 0.00 0.48 0.46 94 1011.8
20260505193834 2 360 1.6 8.0 0.00 0.48 0.46 94 1011.7
20260505193428 2 360 1.6 8.0 0.00 0.48 0.46 94 1011.8
20260505193346 2 360 1.6 8.0 0.00 0.48 0.46 94 1011.8
20260505192820 2 360 1.6 8.0 0.03 0.48 0.46 93 1011.8
20260505192439 2 360 3.2 8.0 0.03 0.48 0.46 94 1011.9
20260505192336 2 360 3.2 8.0 0.03 0.48 0.46 94 1011.9
20260505191933 2 360 1.6 6.4 0.03 0.48 0.46 93 1011.9
20260505191830 2 360 1.6 6.4 0.03 0.48 0.46 93 1011.9
20260505191327 2 360 1.6 6.4 0.03 0.48 0.46 93 1012.0
20260505190845 2 360 3.2 8.0 0.03 0.48 0.46 93 1012.1
20260505190422 2 360 1.6 8.0 0.03 0.48 0.46 94 1012.1
20260505190319 2 360 1.6 8.0 0.03 0.48 0.46 94 1012.1
20260505185837 2 360 1.6 6.4 0.03 0.48 0.46 93 1012.3
20260505185438 2 360 1.6 8.0 0.03 0.48 0.46 93 1012.3
20260505185356 2 360 1.6 8.0 0.03 0.48 0.46 93 1012.3
20260505184832 2 360 3.2 8.0 0.03 0.48 0.46 93 1012.3
20260505184409 2 360 1.6 6.4 0.03 0.48 0.46 93 1012.3
20260505183848 2 360 3.2 6.4 0.03 0.48 0.46 93 1012.3
20260505183327 2 360 1.6 6.4 0.03 0.48 0.46 93 1012.3
20260505182844 2 360 1.6 9.7 0.00 0.46 0.43 93 1012.4
20260505182416 2 360 1.6 4.8 0.00 0.46 0.43 93 1012.3
20260505182332 2 360 1.6 4.8 0.00 0.46 0.43 93 1012.3
20260505181851 2 360 1.6 9.7 0.00 0.46 0.43 93 1012.5
20260505181412 2 360 1.6 9.7 0.00 0.46 0.43 93 1012.6
20260505181329 2 360 1.6 9.7 0.00 0.46 0.43 93 1012.6
20260505180826 2 360 1.6 6.4 0.00 0.46 0.43 93 1012.6
20260505180323 2 360 1.6 9.7 0.00 0.46 0.43 93 1012.7
20260505175922 2 360 1.6 9.7 0.00 0.46 0.43 93 1012.7
20260505175818 2 360 1.6 9.7 0.00 0.46 0.43 93 1012.7
20260505175334 2 360 3.2 8.0 0.00 0.46 0.43 93 1012.7
20260505174933 2 360 1.6 6.4 0.00 0.46 0.43 93 1012.8
20260505174851 2 360 1.6 6.4 0.00 0.46 0.43 93 1012.8
20260505174407 2 360 1.6 8.0 0.00 0.46 0.43 93 1012.8
20260505174325 2 360 1.6 8.0 0.00 0.46 0.43 93 1012.8
20260505173840 2 360 3.2 8.0 0.00 0.46 0.43 93 1012.8
20260505173416 2 360 3.2 8.0 0.00 0.46 0.43 92 1012.9
20260505172911 2 360 1.6 8.0 0.00 0.46 0.43 93 1012.9
20260505172345 2 360 1.6 8.0 0.00 0.46 0.43 93 1012.9
20260505171938 2 360 1.6 8.0 0.00 0.46 0.43 93 1013.0
20260505171834 2 360 1.6 8.0 0.00 0.46 0.43 93 1013.0
20260505171408 2 360 4.8 9.7 0.00 0.46 0.43 93 1012.9
20260505170825 2 360 4.8 9.7 0.00 0.46 0.43 93 1012.8
20260505170320 2 360 3.2 6.4 0.00 0.46 0.43 93 1013.0
20260505165918 2 360 1.6 8.0 0.00 0.46 0.43 93 1013.0
20260505165332 2 360 1.6 8.0 0.00 0.46 0.43 93 1013.1
20260505164909 2 360 1.6 4.8 0.00 0.46 0.43 93 1013.2
20260505164424 2 360 1.6 9.7 0.03 0.46 0.43 93 1013.2
20260505164342 2 360 1.6 9.7 0.03 0.46 0.43 93 1013.2
20260505163857 2 360 3.2 9.7 0.05 0.46 0.43 93 1013.3
20260505163354 2 360 1.6 8.0 0.08 0.46 0.43 93 1013.4
20260505162910 2 360 1.6 4.8 0.08 0.46 0.43 93 1013.4
20260505162425 2 360 1.6 4.8 0.08 0.46 0.43 93 1013.3
20260505162342 2 360 1.6 4.8 0.08 0.46 0.43 93 1013.3
20260505161841 2 360 0.0 4.8 0.08 0.46 0.43 94 1013.4
20260505161332 2 360 1.6 4.8 0.08 0.46 0.43 93 1013.4
20260505160909 2 360 0.0 1.6 0.08 0.46 0.43 93 1013.4
20260505160826 2 360 0.0 1.6 0.08 0.46 0.43 93 1013.4
20260505160343 2 360 0.0 1.6 0.10 0.46 0.43 93 1013.4
20260505152918 1 360 1.6 8.0 0.05 0.38 0.36 93 1013.5
20260505152836 1 360 1.6 8.0 0.05 0.38 0.36 93 1013.5
20260505152334 1 360 1.6 6.4 0.05 0.38 0.36 93 1013.6
20260505151831 1 360 1.6 8.0 0.05 0.38 0.36 93 1013.6
20260505151328 1 360 3.2 9.7 0.05 0.38 0.36 93 1013.5
20260505150907 1 360 1.6 8.0 0.05 0.38 0.36 93 1013.5
20260505150318 1 360 1.6 8.0 0.28 0.36 0.33 93 1013.5
20260505140338 1 360 0.0 4.8 0.00 0.08 0.05 93 1013.9
20260505124823 1 360 4.8 17.7 0.00 0.08 0.05 93 1012.3
20260505124418 1 360 3.2 17.7 0.00 0.08 0.05 93 1012.1
20260505123834 1 360 3.2 12.9 0.00 0.08 0.05 93 1012.0
20260505123435 1 360 6.4 17.7 0.00 0.08 0.05 92 1011.9
20260505123332 1 360 6.4 17.7 0.00 0.08 0.05 92 1011.9
20260505122827 1 360 4.8 17.7 0.00 0.08 0.05 93 1011.9
20260505122347 2 360 1.6 11.3 0.00 0.08 0.05 92 1011.8
20260505121826 2 360 3.2 14.5 0.00 0.08 0.05 92 1011.9
20260505121342 2 360 3.2 14.5 0.00 0.08 0.05 92 1012.0
20260505120857 2 360 1.6 11.3 0.00 0.08 0.05 92 1012.0
20260505120416 2 360 4.8 12.9 0.00 0.08 0.05 92 1011.9
20260505115848 2 18 3.2 17.7 0.00 0.08 0.05 92 1011.9
20260505115326 3 360 4.8 17.7 0.00 0.08 0.05 92 1011.9
20260505114826 3 17 3.2 16.1 0.00 0.08 0.05 92 1011.8
20260505114322 3 360 6.4 12.9 0.00 0.08 0.05 92 1011.8
20260505113858 3 360 3.2 12.9 0.00 0.08 0.05 92 1011.8
20260505113415 3 360 1.6 12.9 0.00 0.08 0.05 92 1011.7
20260505113333 3 360 1.6 12.9 0.00 0.08 0.05 92 1011.7
20260505112847 3 360 1.6 12.9 0.00 0.08 0.05 92 1011.7
20260505112402 4 360 3.2 16.1 0.00 0.08 0.05 92 1011.6
20260505112319 4 360 3.2 16.1 0.00 0.08 0.05 92 1011.6
20260505111917 4 360 6.4 16.1 0.00 0.08 0.05 92 1011.6
20260505111410 4 360 1.6 9.7 0.00 0.08 0.05 92 1011.5
20260505110904 4 360 1.6 12.9 0.00 0.08 0.05 92 1011.3
20260505110822 4 360 1.6 12.9 0.00 0.08 0.05 92 1011.3
20260505110337 5 360 1.6 12.9 0.00 0.08 0.05 92 1011.3
20260505101821 7 360 0.0 0.0 0.00 0.08 0.05 89 1010.4
20260505101417 6 360 0.0 0.0 0.00 0.08 0.05 89 1010.5
20260505101335 6 360 0.0 0.0 0.00 0.08 0.05 89 1010.5
20260505100831 7 360 0.0 0.0 0.00 0.08 0.05 90 1010.3
20260505100428 6 360 0.0 3.2 0.00 0.08 0.05 90 1010.4
20260505100324 6 360 0.0 3.2 0.00 0.08 0.05 90 1010.4
20260505095902 6 360 0.0 3.2 0.00 0.08 0.05 89 1010.3
20260505095819 6 360 0.0 3.2 0.00 0.08 0.05 89 1010.3
20260505095411 6 360 0.0 3.2 0.00 0.08 0.05 89 1010.5
20260505094824 6 360 0.0 1.6 0.00 0.08 0.05 89 1010.5
20260505094318 6 360 0.0 3.2 0.00 0.08 0.05 89 1010.2
20260505093938 6 360 0.0 3.2 0.00 0.08 0.05 89 1010.1
20260505093834 6 360 0.0 3.2 0.00 0.08 0.05 89 1010.1
20260505093331 6 360 0.0 4.8 0.00 0.08 0.05 90 1010.1
20260505092827 6 360 0.0 4.8 0.00 0.08 0.05 90 1010.2
20260505092343 6 360 1.6 4.8 0.00 0.08 0.05 90 1010.3
20260505091918 6 360 0.0 0.0 0.00 0.08 0.05 90 1010.5
20260505091836 6 360 0.0 0.0 0.00 0.08 0.05 90 1010.5
20260505091353 6 360 0.0 4.8 0.00 0.08 0.05 90 1010.5
20260505090828 6 360 1.6 6.4 0.00 0.08 0.05 90 1010.4
20260505090402 6 360 1.6 4.8 0.03 0.08 0.05 89 1010.4
20260505090320 6 360 1.6 4.8 0.03 0.08 0.05 89 1010.4
20260505085839 7 360 1.6 3.2 0.03 0.08 0.05 89 1010.4
20260505085335 7 360 0.0 3.2 0.03 0.08 0.05 89 1010.3
20260505084832 7 360 0.0 1.6 0.03 0.08 0.05 88 1010.2
20260505084328 7 360 0.0 0.0 0.03 0.08 0.05 89 1010.2
20260505083825 7 360 0.0 4.8 0.03 0.08 0.05 88 1010.3
20260505083341 7 360 0.0 4.8 0.03 0.08 0.05 88 1010.1
20260505082838 7 360 1.6 4.8 0.03 0.08 0.05 88 1010.0
20260505082333 7 360 1.6 4.8 0.03 0.08 0.05 88 1010.4
20260505081832 7 360 1.6 3.2 0.03 0.08 0.05 88 1010.5
20260505081328 7 360 0.0 4.8 0.03 0.08 0.05 89 1010.8
20260505080847 7 360 0.0 4.8 0.03 0.08 0.05 89 1010.9
20260505080438 7 360 0.0 0.0 0.00 0.05 0.03 89 1010.9
20260505080356 7 360 0.0 0.0 0.00 0.05 0.03 89 1010.9
20260505075833 7 360 0.0 1.6 0.00 0.05 0.03 89 1010.9
20260505075410 7 360 0.0 1.6 0.00 0.05 0.03 89 1011.0
20260505074925 6 360 0.0 1.6 0.00 0.05 0.03 89 1011.0
20260505074843 6 360 0.0 1.6 0.00 0.05 0.03 89 1011.0
20260505074319 6 360 0.0 6.4 0.00 0.05 0.03 89 1011.1
20260505073858 6 360 1.6 9.7 0.00 0.05 0.03 88 1011.1
20260505073816 6 360 1.6 9.7 0.00 0.05 0.03 88 1011.1
20260505073358 6 360 1.6 9.7 0.00 0.05 0.03 89 1011.3
20260505072853 7 360 3.2 11.3 0.00 0.05 0.03 90 1011.4
20260505072348 7 360 3.2 11.3 0.00 0.05 0.03 91 1011.3
20260505071824 7 360 4.8 9.7 0.00 0.05 0.03 91 1011.5
20260505071404 7 360 3.2 8.0 0.03 0.05 0.03 91 1011.5
20260505070838 7 360 3.2 11.3 0.03 0.05 0.03 91 1011.5
20260505070412 7 360 3.2 11.3 0.03 0.05 0.03 91 1011.6
20260505070330 7 360 3.2 11.3 0.03 0.05 0.03 91 1011.6
20260505065929 7 360 3.2 8.0 0.03 0.05 0.03 90 1011.6
20260505065405 7 360 4.8 8.0 0.03 0.05 0.03 90 1011.7
20260505064904 7 360 3.2 6.4 0.03 0.05 0.03 91 1011.9
20260505064319 7 360 1.6 4.8 0.03 0.05 0.03 90 1011.9
20260505063915 7 360 0.0 3.2 0.03 0.05 0.03 90 1011.9
20260505063352 7 360 0.0 0.0 0.03 0.05 0.03 90 1011.9
20260505062851 7 360 0.0 0.0 0.03 0.05 0.03 91 1011.9
20260505062348 7 360 0.0 0.0 0.03 0.05 0.03 91 1011.9
20260505061824 7 360 0.0 0.0 0.03 0.05 0.03 91 1011.9
20260505061321 7 360 0.0 1.6 0.00 0.03 0.00 91 1011.9
20260505060900 7 360 0.0 1.6 0.00 0.03 0.00 91 1012.0
20260505060317 7 360 0.0 0.0 0.00 0.03 0.00 91 1011.9
20260505055853 7 325 0.0 0.0 0.00 0.03 0.03 91 1011.9
20260505055326 7 325 0.0 4.8 0.00 0.03 0.03 91 1011.9
20260505054844 7 325 0.0 6.4 0.00 0.03 0.03 91 1012.0
20260505054403 7 300 3.2 6.4 0.00 0.03 0.03 91 1012.0
20260505053902 7 304 1.6 4.8 0.00 0.03 0.03 91 1011.7
20260505053317 7 327 0.0 4.8 0.00 0.03 0.03 91 1011.5
20260505052916 7 331 0.0 4.8 0.00 0.03 0.03 91 1011.6
20260505052833 7 331 0.0 4.8 0.00 0.03 0.03 91 1011.6
20260505052331 7 333 0.0 0.0 0.00 0.03 0.03 90 1011.7
20260505051928 7 333 0.0 0.0 0.00 0.03 0.03 90 1011.9
20260505051825 7 333 0.0 0.0 0.00 0.03 0.03 90 1011.9
20260505051340 7 333 0.0 0.0 0.00 0.03 0.03 91 1012.1
20260505050816 7 333 0.0 3.2 0.03 0.03 0.03 90 1012.5
20260505050413 7 333 0.0 4.8 0.03 0.03 0.03 90 1012.5
20260505041350 7 336 0.0 0.0 0.03 0.03 0.03 86 1012.1
20260505040829 7 337 0.0 0.0 0.00 0.00 0.00 85 1012.1
20260505040317 7 336 0.0 6.4 0.00 0.00 0.00 84 1012.1
20260505035934 8 336 0.0 6.4 0.00 0.00 0.00 84 1011.9
20260505035830 8 336 0.0 6.4 0.00 0.00 0.00 84 1011.9
20260505035402 8 336 1.6 8.0 0.00 0.00 0.00 84 1011.8
20260505034856 8 336 1.6 8.0 0.00 0.00 0.00 83 1011.9
20260505034351 8 336 1.6 8.0 0.00 0.00 0.00 82 1011.9
20260505033927 8 313 1.6 8.0 0.00 0.00 0.00 81 1012.0
20260505033823 8 313 1.6 8.0 0.00 0.00 0.00 81 1012.0
20260505033342 8 304 1.6 8.0 0.00 0.00 0.00 79 1011.9
20260505032837 9 360 3.2 9.7 0.00 0.00 0.00 77 1011.8
20260505032436 9 360 4.8 9.7 0.00 0.00 0.00 75 1011.8
20260505032333 9 360 4.8 9.7 0.00 0.00 0.00 75 1011.8
20260505031910 9 360 3.2 6.4 0.00 0.00 0.00 73 1011.7
20260505031828 9 360 3.2 6.4 0.00 0.00 0.00 73 1011.7
20260505031346 9 360 1.6 4.8 0.00 0.00 0.00 73 1011.6
20260505030825 9 360 1.6 6.4 0.00 0.00 0.00 73 1011.6
20260505030402 9 360 3.2 6.4 0.00 0.00 0.00 72 1011.5
20260505025856 9 360 3.2 4.8 0.00 0.00 0.00 73 1011.3
20260505025352 9 360 0.0 4.8 0.00 0.00 0.00 72 1011.3
20260505024846 10 360 1.6 4.8 0.00 0.00 0.00 72 1011.2
20260505024340 10 360 0.0 3.2 0.00 0.00 0.00 72 1011.1
20260505023838 10 360 0.0 0.0 0.00 0.00 0.00 71 1011.1
20260505023410 10 360 0.0 0.0 0.00 0.00 0.00 70 1011.0
20260505022929 10 360 0.0 0.0 0.00 0.00 0.00 70 1010.9
20260505022847 10 360 0.0 0.0 0.00 0.00 0.00 70 1010.9
20260505022323 10 360 0.0 0.0 0.00 0.00 0.00 70 1010.7
20260505021819 10 360 0.0 0.0 0.00 0.00 0.00 69 1010.8
20260505021335 10 360 0.0 0.0 0.00 0.00 0.00 69 1010.7
20260505020932 10 360 0.0 1.6 0.00 0.00 0.00 69 1010.6
20260505020346 10 360 0.0 0.0 0.00 0.00 0.00 69 1010.8
20260505015844 10 360 0.0 0.0 0.00 0.00 0.00 69 1010.8
20260505015343 10 360 0.0 0.0 0.00 0.00 0.00 69 1010.7
20260505014859 10 360 0.0 0.0 0.00 0.00 0.00 69 1010.8
20260505014335 10 360 0.0 0.0 0.00 0.00 0.00 68 1010.7
20260505013852 10 360 0.0 3.2 0.00 0.00 0.00 68 1010.3
20260505013432 11 360 0.0 8.0 0.00 0.00 0.00 67 1010.5
20260505013350 11 360 0.0 8.0 0.00 0.00 0.00 67 1010.5
20260505012846 11 360 0.0 8.0 0.00 0.00 0.00 65 1010.5
20260505012346 11 360 1.6 6.4 0.00 0.00 0.00 65 1010.7
20260505011922 11 360 1.6 6.4 0.00 0.00 0.00 63 1010.5
20260505011355 11 360 0.0 4.8 0.00 0.00 0.00 60 1010.6
20260505010851 12 360 0.0 4.8 0.00 0.00 0.00 57 1010.6
20260505010347 12 360 0.0 8.0 0.00 0.00 0.00 57 1010.5
20260505005826 12 360 1.6 14.5 0.00 0.00 0.00 51 1010.5
20260505005322 13 360 3.2 14.5 0.00 0.00 0.00 49 1010.3
20260505004922 13 320 3.2 11.3 0.00 0.00 0.00 46 1010.3
20260505004818 13 320 3.2 11.3 0.00 0.00 0.00 46 1010.3
20260505004335 13 360 1.6 9.7 0.00 0.00 0.00 45 1010.2
20260505003853 13 360 0.0 9.7 0.00 0.00 0.00 44 1010.2
20260505003328 13 360 4.8 9.7 0.00 0.00 0.00 44 1010.1
20260505002826 13 360 4.8 14.5 0.00 0.00 0.00 45 1010.0
20260505002326 13 360 6.4 14.5 0.00 0.00 0.00 45 1010.0
20260505001919 13 360 4.8 19.3 0.00 0.00 0.00 45 1009.9
20260505001417 13 360 4.8 19.3 0.00 0.00 0.00 45 1009.8
20260505000831 13 360 4.8 16.1 0.00 0.00 0.00 45 1009.8
20260505000328 13 360 8.0 16.1 0.00 0.00 0.00 43 1009.6
20260504235925 13 360 6.4 14.5 0.00 0.00 0.00 41 1009.6
20260504235822 13 360 6.4 14.5 0.00 0.00 0.00 41 1009.6
20260504235359 14 360 3.2 16.1 0.00 0.00 0.00 41 1009.6
20260504235317 14 360 3.2 16.1 0.00 0.00 0.00 41 1009.6
20260504234834 14 360 6.4 16.1 0.00 0.00 0.00 39 1009.6
20260504234330 15 360 4.8 11.3 0.00 0.00 0.00 38 1009.6
20260504233906 15 360 4.8 11.3 0.00 0.00 0.00 38 1009.6
20260504233342 15 360 3.2 11.3 0.00 0.00 0.00 35 1009.6
20260504232818 16 360 1.6 16.1 0.00 0.00 0.00 35 1009.4
20260504232436 16 68 4.8 16.1 0.00 0.00 0.00 33 1009.3
20260504232333 16 68 4.8 16.1 0.00 0.00 0.00 33 1009.3
20260504231828 16 52 3.2 17.7 0.00 0.00 0.00 33 1009.6
20260504231326 16 65 1.6 24.1 0.00 0.00 0.00 33 1009.3
20260504230922 16 360 6.4 24.1 0.00 0.00 0.00 32 1009.0
20260504230818 16 360 6.4 24.1 0.00 0.00 0.00 32 1009.0
20260504230415 16 360 4.8 14.5 0.00 0.00 0.00 32 1008.5
20260504225829 17 360 6.4 19.3 0.00 0.00 0.00 31 1008.4
20260504225347 17 360 8.0 19.3 0.00 0.00 0.00 29 1008.2
20260504224821 18 335 6.4 11.3 0.00 0.00 0.00 28 1008.1
20260504224318 18 360 1.6 4.8 0.00 0.00 0.00 27 1008.1
20260504223932 18 360 0.0 4.8 0.00 0.00 0.00 27 1007.9
20260504223849 18 360 0.0 4.8 0.00 0.00 0.00 27 1007.9
20260504223325 18 360 0.0 4.8 0.00 0.00 0.00 27 1007.8
20260504222829 18 360 0.0 9.7 0.00 0.00 0.00 26 1007.9
20260504222326 18 360 4.8 9.7 0.00 0.00 0.00 27 1008.0
20260504221822 18 360 3.2 8.0 0.00 0.00 0.00 26 1008.0
20260504221342 18 360 1.6 4.8 0.00 0.00 0.00 27 1007.9
20260504220857 18 360 1.6 6.4 0.00 0.00 0.00 27 1008.0
20260504220411 18 360 0.0 9.7 0.00 0.00 0.00 28 1008.0
20260504220329 18 360 0.0 9.7 0.00 0.00 0.00 28 1008.0
20260504215906 18 360 3.2 9.7 0.00 0.00 0.00 27 1008.0
20260504215824 18 360 3.2 9.7 0.00 0.00 0.00 27 1008.0
20260504215317 18 360 0.0 3.2 0.00 0.00 0.00 28 1008.2
20260504214914 18 360 0.0 6.4 0.00 0.00 0.00 28 1008.2
20260504214349 18 360 0.0 6.4 0.00 0.00 0.00 27 1008.2
20260504213907 18 360 0.0 6.4 0.00 0.00 0.00 27 1008.3
20260504213324 18 360 0.0 9.7 0.00 0.00 0.00 28 1008.4
20260504212822 18 360 1.6 9.7 0.00 0.00 0.00 28 1008.4
20260504212418 18 360 3.2 11.3 0.00 0.00 0.00 26 1008.4
20260504212335 18 360 3.2 11.3 0.00 0.00 0.00 26 1008.4
20260504211833 18 360 3.2 11.3 0.00 0.00 0.00 27 1008.4
20260504211326 19 360 3.2 11.3 0.00 0.00 0.00 27 1008.4
20260504210906 19 360 3.2 11.3 0.00 0.00 0.00 26 1008.4
20260504210322 18 360 3.2 20.9 0.00 0.00 0.00 26 1008.6
20260504205817 18 360 4.8 20.9 0.00 0.00 0.00 27 1008.5
20260504205332 19 360 1.6 11.3 0.00 0.00 0.00 25 1008.6
20260504204833 19 360 3.2 11.3 0.00 0.00 0.00 24 1008.6
20260504204349 20 360 3.2 11.3 0.00 0.00 0.00 24 1008.7
20260504203927 21 360 4.8 14.5 0.00 0.00 0.00 25 1008.5
20260504203823 21 360 4.8 14.5 0.00 0.00 0.00 25 1008.5
20260504203423 21 360 8.0 17.7 0.00 0.00 0.00 24 1008.6
20260504202934 21 360 4.8 17.7 0.00 0.00 0.00 23 1008.6
20260504202852 21 360 4.8 17.7 0.00 0.00 0.00 23 1008.6
20260504202350 21 360 3.2 12.9 0.00 0.00 0.00 25 1008.5
20260504201824 20 360 3.2 12.9 0.00 0.00 0.00 26 1008.7
20260504201324 20 5 3.2 12.9 0.00 0.00 0.00 25 1008.8
20260504200820 20 360 4.8 11.3 0.00 0.00 0.00 24 1008.9
20260504200318 20 360 1.6 12.9 0.00 0.00 0.00 24 1008.8
20260504195855 20 360 3.2 12.9 0.00 0.00 0.00 24 1008.9
20260504195431 20 5 1.6 8.0 0.00 0.00 0.00 24 1008.9
20260504195327 20 5 1.6 8.0 0.00 0.00 0.00 24 1008.9